Regional Weather Roundup
Issued by NWS Charleston, SC

Current Version | Previous Version | Graphics & Text | Print | Product List | Glossary On
Versions: 1 2 3 4 5 6 7 8 9 10 11 12 13 14 15 16 17 18 19 20 21 22 23 24 25 26 27 28 29 30 31 32 33 34 35 36 37 38 39 40 41 42 43 44 45 46 47 48 49 50
000 ASUS42 KCHS 301827 RWRCHS REGIONAL WEATHER ROUNDUP NATIONAL WEATHER SERVICE CHARLESTON SC 200 PM EDT THU MAR 30 2017 NOTE: "FAIR" INDICATES FEW OR NO CLOUDS BELOW 12,000 FEET WITH NO SIGNIFICANT WEATHER AND/OR OBSTRUCTIONS TO VISIBILITY. NOT ALL STATIONS ARE QUALITY CONTROLLED. USE DATA WITH CAUTION... ESPECIALLY DEWPOINT OBSERVATIONS. SCZ027-030-031-034>040-042>050-301900- ...SOUTHEAST SOUTH CAROLINA... CITY SKY/WX TMP DP RH WIND PRES REMARKS N CHARLESTON PTSUNNY 73 67 81 E15G23 30.03F 6HR MIN TEMP: 67; 6HR MAX TEMP: 76; 6HR PCP: 0.04; WATERFRONT PRK N/A 67 66 96 E9 30.02F JOHNS ISLAND MOCLDY 72 66 83 E15G21 30.03F PINOPOLIS N/A 75 64 69 SE7G14 29.96F MONCKS CORNER MOCLDY 72 61 68 SE13G20 30.03F SUMMERVILLE MOCLDY 73 63 68 SE8G20 30.02F BEAUFORT MCAS PTSUNNY 76 69 79 E13 29.99F 6HR MIN TEMP: 68; 6HR MAX TEMP: 81; BEAUFORT ARPT MOCLDY 77 68 73 SE7 30.00F HAZE HILTON HEAD IS PTSUNNY 75 68 78 SE6 30.02F WALTERBORO MOCLDY 77 63 61 SE12G24 30.00F ALLENDALE CLOUDY 73 66 78 SE10G17 29.98S THUNDER ...SOUTHERN MIDLANDS AND PEE DEE... CITY SKY/WX TMP DP RH WIND PRES REMARKS GEORGETOWN CLOUDY 70 59 68 E9G16 30.06F KINGSTREE CLOUDY 73 57 56 SE15 30.02F ORANGEBURG PTSUNNY 80 61 52 SE7 29.97F 6HR MIN TEMP: 63; 6HR MAX TEMP: 81; BARNWELL MOCLDY 77 68 73 SE8 29.96F AIKEN MOCLDY 77 63 61 S13 30.00F MANNING MOCLDY 75 61 60 S8G18 30.00F COLUMBIA PTSUNNY 80 61 52 SE12 29.95F 6HR MIN TEMP: 65; 6HR MAX TEMP: 81; SUMTER PTSUNNY 78 61 56 SE13G20 29.98F 6HR MIN TEMP: 59; 6HR MAX TEMP: 80; FLORENCE CLOUDY 74 58 57 E13 30.03F 6HR MIN TEMP: 56; 6HR MAX TEMP: 77; MYRTLE BEACH NOT AVBL N MYRTLE BEACH MOSUNNY 71 56 58 E16G22 30.08F 6HR MIN TEMP: 58; 6HR MAX TEMP: 72; $$ GAZ063-065-086>088-099>101-113>116-118-119-134>141-150-301900- ...SOUTHEAST GEORGIA... CITY SKY/WX TMP DP RH WIND PRES REMARKS SAVANNAH ARPT CLOUDY 76 61 59 W10 30.00F 6HR MIN TEMP: 68; 6HR MAX TEMP: 83; HUNTER AAF LGT RAIN 77 66 69 S6 29.97F 6HR MIN TEMP: 67; 6HR MAX TEMP: 82; FORT STEWART CLOUDY 74 64 71 N8 29.96F 6HR MIN TEMP: 64; 6HR MAX TEMP: 74; 6HR PCP: 0.05; STATESBORO LGT RAIN 67 67 100 S3 29.99F SYLVANIA MOCLDY N/A N/A N/A SW6 30.00F CLAXTON FAIR N/A N/A N/A NE7 29.98F ...CSRA...CENTRAL AND FAR SOUTHEAST GEORGIA... CITY SKY/WX TMP DP RH WIND PRES REMARKS THOMSON PTSUNNY 77 62 59 S10 29.99F AUGUSTA-BUSH CLOUDY 77 66 68 S13 29.96F 6HR MIN TEMP: 65; 6HR MAX TEMP: 77; 6HR PCP: 0.05; AUGUSTA-DANIEL CLOUDY 76 62 62 S8 29.98F SWAINSBORO FAIR 79 59 50 SE13 29.97F VIDALIA SUNNY 81 63 54 S7 29.96F EASTMAN CLOUDY 83 32 15 W5 29.97F HAZLEHURST FAIR 86 58 38 SW6 29.94F ALMA MOSUNNY 85 56 37 VRB3 29.95F 6HR MIN TEMP: 65; 6HR MAX TEMP: 85; WAYCROSS SUNNY 90 59 35 SW9 29.94F JESUP FAIR 82 61 47 S6 29.95F BAXLEY FAIR 86 61 42 SW7 29.94F BRUNSWICK SUNNY 82 70 65 SE8 29.97F SAINT SIMONS SUNNY 77 65 66 SE12 29.98F 6HR MIN TEMP: 69; 6HR MAX TEMP: 77; $$ SCZ027-028-034-036>038-045-046-048>050-GAZ119-141-301900- ...LAKE AND SUPPLEMENTAL COASTAL OBSERVATIONS... STATION/POSITION TIME TEMP WIND PRES WAVE SWELL AIR SEA DIR/SP/G HT/PER HT/PER/DIR (UTC) (F) (DEG/KT/KT) (MB) (FT/S) (FT/S/D) WINYAH BAY 1730 63 60/ 12 1018.0F LAKE MURRAY 1750 74 150/ 5/ 9 1014.2F ACE BASIN NERRS 1745 75 110/ 6 1016.0F FORT PULASKI 1800 69 67 80/ 7/ 8 1016.2 SAPELO ISLAND 1800 77 130/ 5 1015.0 $$ ANZ835-935-AMZ111-154-330-350-352-354-370-450-454-472-301900- ...C-MAN AND BUOY OBSERVATIONS... STATION/POSITION TIME TEMP WIND PRES WAVE SWELL AIR SEA DIR/SP/G HT/PER HT/PER/DIR (UTC) (F) (DEG/KT/KT) (MB) (FT/S) (FT/S/D) BUOY 41004 1750 70 71 110/ 10/ 16 1016.9F 5/ 9 5/100/ 9 BUOY 41008 1750 69 67 150/ 6/ 8 1015.6F 3/10 3/110/10 FOLLY BEACH CMAN 1800 67 80/ 11/ 13 1017.5F CAPERS NEARSHORE NOT AVBL FRIPP NEARSHORE 1808 67 65 90/ 8/ 12 1015.8F STATION/POSITION TIME TEMP WIND PRES WAVE SWELL AIR SEA DIR/SP/G HT/PER HT/PER/DIR (UTC) (F) (DEG/KT/KT) (MB) (FT/S) (FT/S/D) 5E ST. MARYS GA 1800 70 N/A 2/11 2/110/11 FRYING PAN BUOY 1810 70 74 100/ 16/ 19 1018.6 BUOY 41025 1750 65 77 40/ 10/ 16 1020.4F 6/ 9 5/ 80/ 9 CAPE LOOKOUT NC 1800 62 40/ 16/ 17 1020.4F BUOY 41002 1750 67 72 70/ 14/ 17 1019.7F 6/ 9 5/ 80/ 9 BUOY 41010 NOT AVBL ST AUGUSTINE FL 1800 71 69 140/ 11/ 13 1016.2F $$

USA.gov is the U.S. government's official web portal to all federal, state and local government web resources and services.